Location: Unspecified
(50.7693°N, 0.0000°E)
Time: 06:56:02
(UTC+00:00)

Transit 2A - Pass Details

Date: 17 August 2020
Orbit: 591 x 967 km, 66.7° (Epoch: 20 September)

Event Time Altitude Azimuth Distance (km) Brightness Sun altitude
Rises 21:58:21 0° 287° (WNW) 3,588 10.2 -20.6°
Reaches altitude 10° 22:01:38 10° 304° (NW) 2,682 9.8 -20.8°
Maximum altitude 22:06:09 20° 350° (N) 2,084 9.0 -21.2°
Drops below altitude 10° 22:10:42 10° 35° (NE) 2,714 9.1 -21.6°
Sets 22:14:04 0° 52° (NE) 3,644 9.6 -21.8°
